Weather History for K2I0 - March, 2014

Change the Weather History Date:

Friday, March 7, 2014

  Actual Average (KOWB) Record (KOWB)
Temperature  
Mean Temperature 42 °F -  
Max Temperature 57 °F 54 °F 80 °F (1974)
Min Temperature 26 °F 32 °F 7 °F (1967)
Degree Days  
Heating Degree Days 24    
Moisture  
Dew Point 34 °F    
Average Humidity 78    
Maximum Humidity 100    
Minimum Humidity 51    
Precipitation  
Precipitation 0.00 in - - ()
Sea Level Pressure  
Sea Level Pressure 30.03 in    
Wind  
Wind Speed 1 mph (WSW)    
Max Wind Speed 7 mph    
Max Gust Speed -    
Visibility 8 miles    
Events      
Averages and records for this station are not official NWS values.
T = Trace of Precipitation, MM = Missing Value Source: NWS Daily Summary

Daily Weather History Graph

Daily Weather History Graph

Search for Another Location

Airport or City:

Trip Planner

Search our weather history database for the weather conditions in past years. The results will help you decide how hot, cold, wet, or windy it might be!

Date:

Astronomy

Mar. 07, 2014 Rise Set
Actual Time 6:12 AM CST 5:49 PM CST
Civil Twilight 5:46 AM CST 6:15 PM CST
Nautical Twilight 5:16 AM CST 6:45 PM CST
Astronomical Twilight 4:45 AM CST 7:16 PM CST
Moon 10:12 AM CST (3/7) No Moon Set
Length of Visible Light 12h 29m
Length of Day
11h 37m
Waxing Crescent, 42% of the Moon is Illuminated
Mar 7
Waxing Crescent
Mar 8
First Quarter
Mar 16
Full
Mar 23
Last Quarter
Mar 30
New

Hourly Weather History & Observations

Time (CST) Temp. Windchill Dew Point Humidity Pressure Visibility Wind Dir Wind Speed Gust Speed Precip Events Conditions
12:15 AM 30.2 °F - 30.0 °F 99% 30.05 in 5.0 mi Calm Calm - N/A   Clear
12:35 AM 29.8 °F - 29.5 °F 99% 30.05 in 5.0 mi Calm Calm - N/A   Clear
12:55 AM 29.3 °F - 29.3 °F 100% 30.05 in 5.0 mi Calm Calm - N/A   Clear
1:15 AM 29.7 °F - 29.5 °F 99% 30.04 in 5.0 mi Calm Calm - N/A   Clear
1:35 AM 28.9 °F - 28.8 °F 99% 30.04 in 5.0 mi Calm Calm - N/A   Clear
1:55 AM 30.0 °F - 30.0 °F 100% 30.04 in 5.0 mi Calm Calm - N/A   Clear
2:15 AM 28.8 °F - 28.8 °F 100% 30.04 in 4.0 mi Calm Calm - N/A   Clear
2:35 AM 29.1 °F - 29.1 °F 100% 30.04 in 5.0 mi Calm Calm - N/A   Clear
2:55 AM 29.1 °F - 29.1 °F 100% 30.04 in 4.0 mi Calm Calm - N/A   Clear
3:15 AM 28.2 °F - 28.2 °F 100% 30.04 in 4.0 mi Calm Calm - N/A   Clear
3:35 AM 27.9 °F - 27.9 °F 100% 30.04 in 4.0 mi Calm Calm - N/A   Clear
3:55 AM 28.8 °F 25.0 °F 28.8 °F 100% 30.04 in 4.0 mi West 3.5 mph - N/A   Clear
4:20 AM 29.1 °F - 29.1 °F 100% 30.04 in 4.0 mi Calm Calm - N/A   Clear
4:35 AM 27.9 °F - 27.9 °F 100% 30.04 in 3.0 mi Calm Calm - N/A   Clear
4:55 AM 28.4 °F 24.6 °F 28.4 °F 100% 30.04 in 4.0 mi SW 3.5 mph - N/A   Clear
5:15 AM 27.1 °F - 27.1 °F 100% 30.05 in 4.0 mi Calm Calm - N/A   Clear
5:35 AM 27.5 °F - 27.5 °F 100% 30.04 in 4.0 mi Calm Calm - N/A   Clear
5:55 AM 27.0 °F - 27.0 °F 100% 30.05 in 4.0 mi Calm Calm - N/A   Clear
6:15 AM 28.4 °F - 28.4 °F 100% 30.04 in 1.8 mi Calm Calm - N/A   Mist
6:35 AM 26.8 °F - 26.8 °F 100% 30.06 in 2.0 mi Calm Calm - N/A   Clear
6:55 AM 27.1 °F - 27.1 °F 100% 30.06 in 2.5 mi Calm Calm - N/A   Clear
7:15 AM 29.3 °F - 29.3 °F 100% 30.07 in 2.0 mi Calm Calm - N/A   Clear
7:35 AM 31.6 °F - 31.6 °F 100% 30.07 in 2.5 mi Calm Calm - N/A   Clear
7:55 AM 33.1 °F 30.0 °F 32.0 °F 96% 30.07 in 4.0 mi South 3.5 mph - N/A   Clear
8:15 AM 35.1 °F - 32.5 °F 91% 30.07 in 5.0 mi Calm Calm - N/A   Clear
8:35 AM 37.4 °F - 32.4 °F 82% 30.07 in 5.0 mi Calm Calm - N/A   Clear
8:55 AM 37.8 °F - 33.3 °F 84% 30.07 in 5.0 mi Calm Calm - N/A   Haze
9:15 AM 40.1 °F - 34.5 °F 80% 30.07 in 7.0 mi Calm Calm - N/A   Clear
9:35 AM 41.9 °F 39.0 °F 35.4 °F 78% 30.07 in 7.0 mi West 4.6 mph - N/A   Clear
9:55 AM 43.2 °F - 36.1 °F 76% 30.07 in 7.0 mi Calm Calm - N/A   Clear
10:15 AM 44.4 °F - 35.4 °F 71% 30.08 in 10.0 mi Calm Calm - N/A   Clear
10:35 AM 46.6 °F - 35.6 °F 66% 30.07 in 10.0 mi Calm Calm - N/A   Clear
10:55 AM 47.7 °F - 35.4 °F 63% 30.07 in 10.0 mi Calm Calm - N/A   Clear
11:15 AM 48.9 °F - 37.0 °F 64% 30.07 in 10.0 mi West 4.6 mph - N/A   Clear
11:35 AM 50.0 °F - 37.2 °F 62% 30.06 in 10.0 mi West 5.8 mph - N/A   Clear
11:55 AM 50.7 °F - 37.9 °F 62% 30.06 in 10.0 mi West 6.9 mph - N/A   Clear
12:15 PM 51.4 °F - 37.4 °F 59% 30.04 in 10.0 mi West 5.8 mph - N/A   Clear
12:35 PM 52.3 °F - 38.3 °F 59% 30.04 in 10.0 mi West 4.6 mph - N/A   Clear
12:55 PM 53.1 °F - 38.7 °F 58% 30.02 in 10.0 mi WSW 3.5 mph - N/A   Clear
1:15 PM 53.8 °F - 38.8 °F 57% 30.02 in 10.0 mi West 3.5 mph - N/A   Clear
1:35 PM 54.5 °F - 38.3 °F 54% 30.02 in 10.0 mi Calm Calm - N/A   Clear
1:55 PM 55.0 °F - 38.3 °F 53% 30.01 in 10.0 mi Calm Calm - N/A   Clear
2:15 PM 55.2 °F - 38.8 °F 54% 30.01 in 10.0 mi West 5.8 mph - N/A   Clear
2:35 PM 55.4 °F - 39.0 °F 54% 30.01 in 10.0 mi West 6.9 mph - N/A   Clear
2:55 PM 56.1 °F - 39.2 °F 53% 30.01 in 10.0 mi West 4.6 mph - N/A   Clear
3:15 PM 56.3 °F - 40.5 °F 55% 30.00 in 10.0 mi WNW 3.5 mph - N/A   Clear
3:35 PM 56.1 °F - 40.8 °F 57% 30.00 in 10.0 mi West 5.8 mph - N/A   Clear
3:55 PM 56.7 °F - 38.5 °F 51% 29.99 in 10.0 mi Calm Calm - N/A   Clear
4:15 PM 57.2 °F - 39.4 °F 51% 29.98 in 10.0 mi Calm Calm - N/A   Clear
4:35 PM 54.3 °F - 39.6 °F 57% 29.98 in 10.0 mi WSW 6.9 mph - N/A   Clear
4:55 PM 53.2 °F - 37.8 °F 56% 29.98 in 10.0 mi West 6.9 mph - N/A   Clear
5:15 PM 53.4 °F - 36.9 °F 53% 29.98 in 10.0 mi West 4.6 mph - N/A   Clear
5:35 PM 51.8 °F - 37.6 °F 58% 29.99 in 10.0 mi West 4.6 mph - N/A   Clear
5:55 PM 49.5 °F - 37.9 °F 65% 29.99 in 10.0 mi WSW 4.6 mph - N/A   Clear
6:15 PM 49.6 °F - 37.0 °F 62% 30.00 in 10.0 mi WSW 5.8 mph - N/A   Clear
6:35 PM 48.6 °F - 36.3 °F 63% 29.99 in 10.0 mi SW 4.6 mph - N/A   Clear
6:55 PM 49.1 °F - 35.4 °F 59% 29.99 in 10.0 mi WSW 3.5 mph - N/A   Clear
7:15 PM 44.4 °F - 36.0 °F 72% 29.99 in 10.0 mi Calm Calm - N/A   Clear
7:35 PM 44.6 °F 42.2 °F 34.7 °F 68% 30.00 in 10.0 mi SW 4.6 mph - N/A   Clear
7:55 PM 44.1 °F 42.5 °F 34.7 °F 70% 30.00 in 10.0 mi South 3.5 mph - N/A   Clear
8:15 PM 43.3 °F - 34.7 °F 72% 30.01 in 10.0 mi Calm Calm - N/A   Clear
8:35 PM 45.0 °F 43.5 °F 34.2 °F 66% 30.01 in 10.0 mi SSW 3.5 mph - N/A   Clear
8:55 PM 41.9 °F - 34.0 °F 73% 30.02 in 10.0 mi Calm Calm - N/A   Clear
9:15 PM 42.4 °F 39.6 °F 34.2 °F 72% 30.02 in 10.0 mi SW 4.6 mph - N/A   Clear
9:35 PM 39.6 °F - 33.3 °F 78% 30.03 in 10.0 mi Calm Calm - N/A   Clear
9:55 PM 39.7 °F - 33.8 °F 79% 30.03 in 10.0 mi Calm Calm - N/A   Clear
10:15 PM 37.8 °F - 34.3 °F 87% 30.03 in 10.0 mi Calm Calm - N/A   Clear
10:35 PM 37.8 °F - 33.8 °F 86% 30.03 in 10.0 mi Calm Calm - N/A   Clear
10:55 PM 38.7 °F - 34.2 °F 84% 30.03 in 10.0 mi Calm Calm - N/A   Clear
11:15 PM 37.9 °F - 34.0 °F 86% 30.03 in 10.0 mi Calm Calm - N/A   Clear
11:35 PM 36.9 °F - 33.8 °F 89% 30.02 in 10.0 mi Calm Calm - N/A   Clear
11:55 PM 37.0 °F - 34.3 °F 90% 30.02 in 10.0 mi Calm Calm - N/A   Clear